Find Starlink 3135

NORAD ID: 49424 Int'l Des: 2021-104 Owner: SPXS Country: US Constellation: starlink operational
LEOCIRCULAR

現在のビュー

3D地球を読み込み中...

About Starlink 3135

Starlink 3135 (NORAD 49424) is a starlink constellation satellite (v1.5) launched Nov 13, 2021 by SPXS of US. It operates in LEO, CIRCULAR orbit with a mass of 290.00 kg.

次回通過

Passes for default location (London). Set your location on the main map for personalized predictions.

高度履歴

Loading altitude history...

軌道要素

1 49424U 21104S 26263.04551153 .00000061 00000-0 12651-4 0 9990
2 49424 53.1610 64.1189 0001126 83.0988 277.0143 15.35393213268135
Epoch: Sep 20, 2026 • Age: 15 hours

現在のステータス

高度 464.3 km
遠地点 / 近地点 N/A
速度 7.64 km/s
衛星直下点 47.29°N, 46.76°W
打ち上げ日 Nov 13, 2021
運用期間 4.8 years
タイプ internet

技術仕様

分類 Payload
質量 290.00 kg
乾燥質量 270.00 kg
長さ 0.20 m
スパン 9.00 m
形状 ? Box + pan
製造者 SPXS
バスタイプ Starlink
フェーズステータス In Orbit
所有者/国 SPXS/US

Most Searched